Destin, FL

9:15 PM CDT on June 28, 2017 (GMT -0500)
Destin-Fort Walton Beach

Weather History for KDTS - October, 2013

Change the Weather History Date:

Monday, October 7, 2013

  Actual Average Record
Temperature  
Mean Temperature 72 °F -  
Max Temperature 81 °F 79 °F 93 °F (2016)
Min Temperature 64 °F 64 °F 55 °F (2001)
Cooling Degree Days 7    
Growing Degree Days 22 (Base 50)    
Moisture  
Dew Point 64 °F    
Average Humidity 77    
Maximum Humidity 94    
Minimum Humidity 50    
Precipitation  
Precipitation 0.03 in - - ()
Sea Level Pressure  
Sea Level Pressure 29.85 in    
Wind  
Wind Speed 8 mph (North)    
Max Wind Speed 21 mph    
Max Gust Speed 30 mph    
Visibility 10 miles    
Events Rain    
Averages and records for this station are not official NWS values.
T = Trace of Precipitation, MM = Missing Value Source: NWS Daily Summary

Daily Weather History Graph

Daily Weather History Graph

Search for Another Location

Airport or City:

Trip Planner

Search our weather history database for the weather conditions in past years. The results will help you decide how hot, cold, wet, or windy it might be!

Date:

Astronomy

Oct. 07, 2013 Rise Set
Actual Time 6:43 AM CDT 6:23 PM CDT
Civil Twilight 6:19 AM CDT 6:47 PM CDT
Nautical Twilight 5:51 AM CDT 7:15 PM CDT
Astronomical Twilight 5:23 AM CDT 7:43 PM CDT
Moon 9:19 AM CDT (10/7) 8:21 PM CDT (10/7)
Length of Visible Light 12h 28m
Length of Day
11h 40m
Waxing Crescent, 9% of the Moon is Illuminated
Oct 7
Waxing Crescent
Oct 11
First Quarter
Oct 18
Full
Oct 26
Last Quarter
Nov 3
New

Hourly Weather History & Observations

Time (CDT) Temp. Heat Index Dew Point Humidity Pressure Visibility Wind Dir Wind Speed Gust Speed Precip Events Conditions
12:06 AM 75.2 °F - 71.6 °F 89% 29.82 in 10.0 mi NE 4.6 mph - N/A   Overcast
12:14 AM 75.2 °F - 71.6 °F 89% 29.82 in 10.0 mi NNE 3.5 mph - N/A   Overcast
12:28 AM 73.4 °F - 71.6 °F 94% 29.82 in 10.0 mi NE 3.5 mph - N/A   Overcast
12:40 AM 73.4 °F - 71.6 °F 94% 29.82 in 10.0 mi Calm Calm - N/A   Overcast
12:50 AM 73.4 °F - 71.6 °F 94% 29.82 in 10.0 mi Calm Calm - N/A   Overcast
12:53 AM 73.9 °F - 72.0 °F 93% 29.82 in 10.0 mi Calm Calm - N/A   Overcast
1:33 AM 73.4 °F - 71.6 °F 94% 29.81 in 10.0 mi NNE 4.6 mph - N/A   Overcast
1:53 AM 73.9 °F - 72.0 °F 93% 29.81 in 10.0 mi NNE 3.5 mph - N/A   Overcast
2:27 AM 73.4 °F - 71.6 °F 94% 29.80 in 10.0 mi North 5.8 mph - 0.00 in   Overcast
2:53 AM 73.9 °F - 72.0 °F 93% 29.79 in 5.0 mi North 3.5 mph - 0.01 in Rain Light Rain
3:11 AM 73.4 °F - 71.6 °F 94% 29.79 in 8.0 mi NNW 9.2 mph 19.6 mph 0.01 in Rain Light Rain
3:53 AM 70.0 °F - 68.0 °F 93% 29.81 in 10.0 mi NNW 20.7 mph 25.3 mph 0.02 in Rain Light Rain
4:53 AM 64.9 °F - 62.1 °F 90% 29.83 in 10.0 mi North 16.1 mph - 0.00 in Rain Light Rain
5:13 AM 66.2 °F - 62.6 °F 88% 29.82 in 10.0 mi North 17.3 mph 29.9 mph 0.00 in Rain Light Rain
5:53 AM 64.9 °F - 61.0 °F 87% 29.83 in 10.0 mi North 16.1 mph 25.3 mph 0.00 in   Partly Cloudy
6:53 AM 64.9 °F - 60.1 °F 84% 29.85 in 10.0 mi North 11.5 mph 21.9 mph N/A   Clear
7:53 AM 64.9 °F - 61.0 °F 87% 29.86 in 10.0 mi North 12.7 mph - N/A   Clear
8:53 AM 68.0 °F - 61.0 °F 78% 29.87 in 10.0 mi North 15.0 mph - N/A   Scattered Clouds
9:53 AM 71.1 °F - 62.1 °F 73% 29.87 in 10.0 mi North 13.8 mph - N/A   Partly Cloudy
10:53 AM 73.9 °F - 63.0 °F 68% 29.87 in 10.0 mi North 15.0 mph - N/A   Clear
11:53 AM 77.0 °F - 64.0 °F 64% 29.86 in 10.0 mi North 13.8 mph 20.7 mph N/A   Clear
12:53 PM 78.1 °F - 64.0 °F 62% 29.85 in 10.0 mi NNW 12.7 mph - N/A   Clear
1:53 PM 80.1 °F 81.7 °F 64.0 °F 58% 29.83 in 10.0 mi North 11.5 mph - N/A   Clear
2:53 PM 80.1 °F 81.5 °F 63.0 °F 56% 29.83 in 10.0 mi North 10.4 mph - N/A   Clear
3:53 PM 80.1 °F 81.1 °F 61.0 °F 52% 29.83 in 10.0 mi North 11.5 mph - N/A   Clear
4:53 PM 79.0 °F - 59.0 °F 50% 29.83 in 10.0 mi North 11.5 mph 21.9 mph N/A   Clear
5:53 PM 75.9 °F - 59.0 °F 56% 29.86 in 10.0 mi North 12.7 mph 19.6 mph N/A   Clear
6:53 PM 73.9 °F - 59.0 °F 59% 29.88 in 10.0 mi NNW 12.7 mph - N/A   Clear
7:53 PM 72.0 °F - 55.9 °F 57% 29.91 in 10.0 mi NNW 15.0 mph 23.0 mph N/A   Clear
8:53 PM 70.0 °F - 55.9 °F 61% 29.94 in 10.0 mi North 13.8 mph - N/A   Clear
9:53 PM 69.1 °F - 55.9 °F 63% 29.95 in 10.0 mi NNW 15.0 mph - N/A   Clear
10:53 PM 69.1 °F - 55.9 °F 63% 29.95 in 10.0 mi NNW 10.4 mph 19.6 mph N/A   Mostly Cloudy
11:53 PM 68.0 °F - 55.0 °F 63% 29.93 in 10.0 mi North 12.7 mph - N/A   Overcast